Showing default

BEIDOU 3M24, 44543

Orbit data source: Space-Track

BEIDOU 3M24, 44543 is a payload satellite owned by CNSA (CN) in MEO that was launched on Sun, 22 Sep 2019 UTC via a CHANG ZHENG 3B/YZ-1 launch vehicle from the Xichang Space Center, China (XSC). Payload-class satellites include a variety of spacecraft equipped with specific instruments for various scientific and technological missions. These include communications satellites like Starlink; space stations such as the ISS; scientific satellites like the Hubble; Earth observation satellites from companies like Planet Labs, Umbra, and HawkEye 360; GPS; miniature CubeSats for education and research; and military/defense satellites.

Loading next visibility...
Identifier
44543, 2019-061B
Orbit
MEO
Country
Flag of CNCN / PRC
Related business
Manufacturer
CAST
Mission
Operational Defense Navigation
Bus & Motor
BD-3M/SAR, Unknown motor
Mass
1,014 kg wet, ~850 kg dry
Launch date (UTC)
2019-09-22 (7 years ago)
Launch vehicle
CHANG ZHENG 3B/YZ-1
Launch site
Xichang Space Center, China (XSC)
Object type
Payload
Rocket body
Debris
Shape & HBR
Box + 2 Pan, Unknown HBR
Radar Cross Section
8.984 m², Large (>1 m²)

Expand to show TLE details & history
Last TLE update: 2 days ago

TLE from 2 days ago
0 BEIDOU 3M24
1 44543U 19061B   26171.17384045  .00000066  00000-0  00000-0 0  9998
2 44543  54.3949 182.5950 0005754 338.0602  98.8908  1.86227398 45859
Epoch: 2026-06-20T04:10Z
TLE epoch observation values (Epoch: 2026-06-20T04:10:19.814Z)
Latitude
52.4125°
Longitude
-79.97581°
Altitude
21,538.162 km
Speed
3.78 km/s
True Right ascension
16h 43m 59s
True Declination
52° 22' 12"
Sunlit
Object was in daylight at epoch
Visualization orbit readout
Latitude
Unknown
Longitude
Unknown
Altitude
Unknown
Speed
Unknown
Apparent Right ascension
Unknown
Apparent Declination
Unknown
Sunlit
N/A
Visualization observer readout
Local Sidereal Time
21:24:25
Azimuth
Unknown
Elevation
Unknown
Doppler factor
Unknown
Orbital elements
Apogee altitude
21,544.499 km
Perigee altitude
21,512.384 km
Semi-major axis
27,906.579 km
Eccentricity
0.00058
Inclination
54.3949°
RAAN
182.595°
Arg. of periapsis
338.0602°
True anomaly
98.95594°
Mean anomaly
98.8908°
Eccentric anomaly
98.92337°
Mean motion
0.46557 °/min
Orbital period
773.25 mins
BSTAR
0
Loading maneuver chart data...
Computing Atmospheric mass density...
Loading historical data...
Loading historical data...
Loading historical data...
Loading historical data...
Loading historical data...
Loading historical data...
Loading historical data...
Other satellites on launch #61 in the year 2019 (2019-09-22 UTC)

Documentation

Showing up to 5 results
|